Time,TemperatureF,DewpointF,PressureIn,WindDirection,WindDirectionDegrees,WindSpeedMPH,WindSpeedGustMPH,Humidity,HourlyPrecipIn,Conditions,Clouds,dailyrainin,SoftwareType,DateUTC
2013-04-23 00:00:00,67.8,15.1,29.70,WSW,243,3.0,6.0,13,0.00,,,0.00,Wunderground v.1.15,2013-04-23 06:00:00,
2013-04-23 00:05:00,67.6,14.9,29.70,West,279,3.0,6.0,13,0.00,,,0.00,Wunderground v.1.15,2013-04-23 06:05:00,
2013-04-23 00:10:00,67.6,16.6,29.70,SSW,210,4.0,4.0,14,0.00,,,0.00,Wunderground v.1.15,2013-04-23 06:10:00,
2013-04-23 00:15:00,67.6,14.9,29.70,WNW,288,4.0,4.0,13,0.00,,,0.00,Wunderground v.1.15,2013-04-23 06:15:00,
2013-04-23 00:20:00,67.4,14.8,29.70,West,273,4.0,4.0,13,0.00,,,0.00,Wunderground v.1.15,2013-04-23 06:20:00,
2013-04-23 00:25:00,67.3,16.4,29.70,West,263,4.0,4.0,14,0.00,,,0.00,Wunderground v.1.15,2013-04-23 06:25:00,
2013-04-23 00:30:00,67.1,16.3,29.71,West,266,3.0,3.0,14,0.00,,,0.00,Wunderground v.1.15,2013-04-23 06:30:00,
2013-04-23 00:35:00,67.0,16.2,29.71,SSW,212,4.0,4.0,14,0.00,,,0.00,Wunderground v.1.15,2013-04-23 06:35:00,
2013-04-23 00:40:00,66.9,16.1,29.71,SW,222,4.0,4.0,14,0.00,,,0.00,Wunderground v.1.15,2013-04-23 06:40:00,
2013-04-23 00:45:00,66.7,15.9,29.71,West,278,4.0,4.0,14,0.00,,,0.00,Wunderground v.1.15,2013-04-23 06:45:00,
2013-04-23 00:50:00,66.4,15.7,29.71,SSW,196,3.0,3.0,14,0.00,,,0.00,Wunderground v.1.15,2013-04-23 06:50:00,
2013-04-23 00:55:00,66.2,15.5,29.71,West,277,2.0,3.0,14,0.00,,,0.00,Wunderground v.1.15,2013-04-23 06:55:00,
2013-04-23 01:00:00,65.8,15.2,29.71,SW,219,2.0,2.0,14,0.00,,,0.00,Wunderground v.1.15,2013-04-23 07:00:00,
2013-04-23 01:05:00,65.5,16.6,29.72,SW,219,2.0,2.0,15,0.00,,,0.00,Wunderground v.1.15,2013-04-23 07:05:00,
2013-04-23 01:10:00,65.4,16.5,29.72,South,190,2.0,2.0,15,0.00,,,0.00,Wunderground v.1.15,2013-04-23 07:10:00,
2013-04-23 01:15:00,65.1,16.2,29.72,SW,231,1.0,2.0,15,0.00,,,0.00,Wunderground v.1.15,2013-04-23 07:15:00,
2013-04-23 01:20:00,64.8,16.0,29.72,SSW,194,1.0,1.0,15,0.00,,,0.00,Wunderground v.1.15,2013-04-23 07:20:00,
2013-04-23 01:25:00,64.5,15.8,29.72,South,190,1.0,4.0,15,0.00,,,0.00,Wunderground v.1.15,2013-04-23 07:25:00,
2013-04-23 01:30:00,64.3,15.6,29.71,South,190,1.0,1.0,15,0.00,,,0.00,Wunderground v.1.15,2013-04-23 07:30:00,
2013-04-23 01:35:00,63.8,15.2,29.71,SSE,153,0.0,2.0,15,0.00,,,0.00,Wunderground v.1.15,2013-04-23 07:35:00,
2013-04-23 01:40:00,63.3,16.3,29.71,SE,138,0.0,1.0,16,0.00,,,0.00,Wunderground v.1.15,2013-04-23 07:40:00,
2013-04-23 01:44:00,63.0,16.0,29.71,SE,145,0.0,1.0,16,0.00,,,0.00,Wunderground v.1.15,2013-04-23 07:44:00,
2013-04-23 01:49:00,63.2,16.2,29.70,SSE,147,1.0,2.0,16,0.00,,,0.00,Wunderground v.1.15,2013-04-23 07:49:00,
2013-04-23 01:54:00,63.7,16.6,29.70,SW,231,2.0,5.0,16,0.00,,,0.00,Wunderground v.1.15,2013-04-23 07:54:00,
2013-04-23 02:00:00,63.8,15.2,29.71,SSW,211,3.0,4.0,15,0.00,,,0.00,Wunderground v.1.15,2013-04-23 08:00:00,
2013-04-23 02:10:00,63.2,16.2,29.71,SSE,155,1.0,2.0,16,0.00,,,0.00,Wunderground v.1.15,2013-04-23 08:10:00,
2013-04-23 02:15:00,62.9,16.0,29.71,SSW,207,1.0,3.0,16,0.00,,,0.00,Wunderground v.1.15,2013-04-23 08:15:00,
2013-04-23 02:20:00,62.7,15.8,29.70,WSW,238,1.0,1.0,16,0.00,,,0.00,Wunderground v.1.15,2013-04-23 08:20:00,
2013-04-23 02:25:00,62.8,15.9,29.70,South,183,1.0,1.0,16,0.00,,,0.00,Wunderground v.1.15,2013-04-23 08:25:00,
2013-04-23 02:35:00,63.0,16.0,29.70,South,190,2.0,7.0,16,0.00,,,0.00,Wunderground v.1.15,2013-04-23 08:35:00,
2013-04-23 02:39:00,62.8,15.9,29.70,South,190,1.0,1.0,16,0.00,,,0.00,Wunderground v.1.15,2013-04-23 08:39:00,
2013-04-23 02:44:00,62.4,17.0,29.71,South,190,0.0,1.0,17,0.00,,,0.00,Wunderground v.1.15,2013-04-23 08:44:00,
2013-04-23 02:50:00,62.2,15.4,29.70,SSE,151,1.0,2.0,16,0.00,,,0.00,Wunderground v.1.15,2013-04-23 08:50:00,
2013-04-23 02:55:00,62.3,15.5,29.71,SSW,198,1.0,2.0,16,0.00,,,0.00,Wunderground v.1.15,2013-04-23 08:55:00,
2013-04-23 03:00:00,62.1,16.7,29.71,South,174,1.0,2.0,17,0.00,,,0.00,Wunderground v.1.15,2013-04-23 09:00:00,
2013-04-23 03:05:00,61.9,16.5,29.71,SSW,207,1.0,2.0,17,0.00,,,0.00,Wunderground v.1.15,2013-04-23 09:05:00,
2013-04-23 03:10:00,61.5,16.2,29.70,SSW,207,1.0,1.0,17,0.00,,,0.00,Wunderground v.1.15,2013-04-23 09:10:00,
2013-04-23 03:15:00,61.2,16.0,29.71,South,189,0.0,1.0,17,0.00,,,0.00,Wunderground v.1.15,2013-04-23 09:15:00,
2013-04-23 03:20:00,61.1,15.9,29.71,South,190,0.0,0.0,17,0.00,,,0.00,Wunderground v.1.15,2013-04-23 09:20:00,
2013-04-23 03:25:00,61.0,17.1,29.70,South,189,0.0,0.0,18,0.00,,,0.00,Wunderground v.1.15,2013-04-23 09:25:00,
2013-04-23 03:30:00,60.8,15.6,29.71,South,189,0.0,10.0,17,0.00,,,0.00,Wunderground v.1.15,2013-04-23 09:30:00,
2013-04-23 03:35:00,60.6,15.5,29.70,SSE,166,1.0,10.0,17,0.00,,,0.00,Wunderground v.1.15,2013-04-23 09:35:00,
2013-04-23 03:39:00,60.3,15.2,29.70,SSE,166,0.0,0.0,17,0.00,,,0.00,Wunderground v.1.15,2013-04-23 09:39:00,
2013-04-23 03:44:00,60.0,16.3,29.70,South,172,1.0,1.0,18,0.00,,,0.00,Wunderground v.1.15,2013-04-23 09:44:00,
2013-04-23 03:50:00,59.5,15.9,29.70,South,176,1.0,2.0,18,0.00,,,0.00,Wunderground v.1.15,2013-04-23 09:50:00,
2013-04-23 03:55:00,59.0,16.7,29.70,South,190,0.0,2.0,19,0.00,,,0.00,Wunderground v.1.15,2013-04-23 09:55:00,
2013-04-23 04:00:00,58.6,16.4,29.71,South,190,0.0,0.0,19,0.00,,,0.00,Wunderground v.1.15,2013-04-23 10:00:00,
2013-04-23 04:05:00,58.1,16.0,29.71,South,190,0.0,0.0,19,0.00,,,0.00,Wunderground v.1.15,2013-04-23 10:05:00,
2013-04-23 04:10:00,57.6,15.6,29.71,South,190,0.0,0.0,19,0.00,,,0.00,Wunderground v.1.15,2013-04-23 10:10:00,
2013-04-23 04:15:00,57.2,16.4,29.71,South,188,0.0,1.0,20,0.00,,,0.00,Wunderground v.1.15,2013-04-23 10:15:00,
2013-04-23 04:20:00,56.8,16.1,29.71,South,188,0.0,0.0,20,0.00,,,0.00,Wunderground v.1.15,2013-04-23 10:20:00,
2013-04-23 04:24:00,56.4,15.8,29.71,South,186,0.0,0.0,20,0.00,,,0.00,Wunderground v.1.15,2013-04-23 10:24:00,
2013-04-23 04:29:00,56.0,15.4,29.71,South,185,0.0,4.0,20,0.00,,,0.00,Wunderground v.1.15,2013-04-23 10:29:00,
2013-04-23 04:35:00,55.7,16.3,29.71,South,185,0.0,4.0,21,0.00,,,0.00,Wunderground v.1.15,2013-04-23 10:35:00,
2013-04-23 04:40:00,55.3,16.0,29.70,South,185,0.0,0.0,21,0.00,,,0.00,Wunderground v.1.15,2013-04-23 10:40:00,
2013-04-23 04:45:00,55.1,15.8,29.70,South,185,0.0,0.0,21,0.00,,,0.00,Wunderground v.1.15,2013-04-23 10:45:00,
2013-04-23 04:50:00,55.0,15.7,29.70,South,184,0.0,0.0,21,0.00,,,0.00,Wunderground v.1.15,2013-04-23 10:50:00,
2013-04-23 04:55:00,54.9,15.6,29.70,South,184,0.0,0.0,21,0.00,,,0.00,Wunderground v.1.15,2013-04-23 10:55:00,
2013-04-23 05:00:00,55.1,16.9,29.70,South,183,0.0,0.0,22,0.00,,,0.00,Wunderground v.1.15,2013-04-23 11:00:00,
2013-04-23 05:05:00,55.4,17.1,29.70,South,183,0.0,0.0,22,0.00,,,0.00,Wunderground v.1.15,2013-04-23 11:05:00,
2013-04-23 05:10:00,55.5,19.2,29.70,South,180,0.0,0.0,24,0.00,,,0.00,Wunderground v.1.15,2013-04-23 11:10:00,
2013-04-23 05:15:00,55.4,21.0,29.69,SSE,152,1.0,1.0,26,0.00,,,0.00,Wunderground v.1.15,2013-04-23 11:15:00,
2013-04-23 05:19:00,55.0,21.6,29.69,SSE,152,0.0,0.0,27,0.00,,,0.00,Wunderground v.1.15,2013-04-23 11:19:00,
2013-04-23 05:25:00,54.5,22.0,29.69,SSE,152,0.0,0.0,28,0.00,,,0.00,Wunderground v.1.15,2013-04-23 11:25:00,
2013-04-23 05:30:00,54.0,22.4,29.70,SSE,154,0.0,3.0,29,0.00,,,0.00,Wunderground v.1.15,2013-04-23 11:30:00,
2013-04-23 05:35:00,53.7,23.0,29.70,SE,140,0.0,3.0,30,0.00,,,0.00,Wunderground v.1.15,2013-04-23 11:35:00,
2013-04-23 05:40:00,53.5,22.8,29.70,SSE,151,1.0,1.0,30,0.00,,,0.00,Wunderground v.1.15,2013-04-23 11:40:00,
2013-04-23 05:45:00,53.3,23.4,29.70,SSE,150,1.0,1.0,31,0.00,,,0.00,Wunderground v.1.15,2013-04-23 11:45:00,
2013-04-23 05:50:00,53.0,23.1,29.71,SSE,150,0.0,2.0,31,0.00,,,0.00,Wunderground v.1.15,2013-04-23 11:50:00,
2013-04-23 05:55:00,52.9,23.0,29.71,South,178,1.0,2.0,31,0.00,,,0.00,Wunderground v.1.15,2013-04-23 11:55:00,
2013-04-23 06:00:00,52.8,23.0,29.72,South,178,1.0,1.0,31,0.00,,,0.00,Wunderground v.1.15,2013-04-23 12:00:00,
2013-04-23 06:04:00,52.6,22.8,29.72,South,178,0.0,1.0,31,0.00,,,0.00,Wunderground v.1.15,2013-04-23 12:04:00,
2013-04-23 06:10:00,52.3,23.3,29.72,South,178,0.0,0.0,32,0.00,,,0.00,Wunderground v.1.15,2013-04-23 12:10:00,
2013-04-23 06:15:00,52.0,23.0,29.72,South,178,0.0,0.0,32,0.00,,,0.00,Wunderground v.1.15,2013-04-23 12:15:00,
2013-04-23 06:20:00,51.7,23.5,29.72,NW,304,0.0,3.0,33,0.00,,,0.00,Wunderground v.1.15,2013-04-23 12:20:00,
2013-04-23 06:25:00,51.1,25.7,29.73,NNW,340,1.0,3.0,37,0.00,,,0.00,Wunderground v.1.15,2013-04-23 12:25:00,
2013-04-23 06:30:00,50.3,26.3,29.73,NNW,337,2.0,2.0,39,0.00,,,0.00,Wunderground v.1.15,2013-04-23 12:30:00,
2013-04-23 06:35:00,49.6,26.2,29.73,NNW,337,1.0,2.0,40,0.00,,,0.00,Wunderground v.1.15,2013-04-23 12:35:00,
2013-04-23 06:40:00,48.9,26.8,29.73,NNW,337,1.0,1.0,42,0.00,,,0.00,Wunderground v.1.15,2013-04-23 12:40:00,
2013-04-23 06:45:00,48.2,26.7,29.74,NNW,336,1.0,2.0,43,0.00,,,0.00,Wunderground v.1.15,2013-04-23 12:45:00,
2013-04-23 06:50:00,47.7,27.4,29.74,NNW,338,2.0,2.0,45,0.00,,,0.00,Wunderground v.1.15,2013-04-23 12:50:00,
2013-04-23 06:54:00,47.4,27.1,29.74,NNW,338,2.0,3.0,45,0.00,,,0.00,Wunderground v.1.15,2013-04-23 12:54:00,
2013-04-23 06:59:00,47.2,26.9,29.75,NNW,338,2.0,2.0,45,0.00,,,0.00,Wunderground v.1.15,2013-04-23 12:59:00,
2013-04-23 07:05:00,47.2,27.5,29.75,NNW,338,1.0,2.0,46,0.00,,,0.00,Wunderground v.1.15,2013-04-23 13:05:00,
2013-04-23 07:10:00,47.3,27.5,29.75,NNW,338,1.0,1.0,46,0.00,,,0.00,Wunderground v.1.15,2013-04-23 13:10:00,
2013-04-23 07:15:00,47.4,27.1,29.75,NNW,338,1.0,1.0,45,0.00,,,0.00,Wunderground v.1.15,2013-04-23 13:15:00,
2013-04-23 07:20:00,47.4,27.6,29.75,NNW,338,0.0,0.0,46,0.00,,,0.00,Wunderground v.1.15,2013-04-23 13:20:00,
2013-04-23 07:25:00,47.5,27.7,29.75,NNW,338,1.0,1.0,46,0.00,,,0.00,Wunderground v.1.15,2013-04-23 13:25:00,
2013-04-23 07:30:00,47.5,27.7,29.76,NNW,338,1.0,4.0,46,0.00,,,0.00,Wunderground v.1.15,2013-04-23 13:30:00,
2013-04-23 07:35:00,47.4,27.6,29.76,NNW,338,1.0,4.0,46,0.00,,,0.00,Wunderground v.1.15,2013-04-23 13:35:00,
2013-04-23 07:40:00,47.1,27.4,29.76,NNW,338,1.0,1.0,46,0.00,,,0.00,Wunderground v.1.15,2013-04-23 13:40:00,
2013-04-23 07:45:00,46.9,27.7,29.76,NNW,338,0.0,1.0,47,0.00,,,0.00,Wunderground v.1.15,2013-04-23 13:45:00,
2013-04-23 07:50:00,47.1,27.9,29.76,NNW,338,0.0,0.0,47,0.00,,,0.00,Wunderground v.1.15,2013-04-23 13:50:00,
2013-04-23 07:54:00,47.6,28.3,29.76,NNW,338,1.0,2.0,47,0.00,,,0.00,Wunderground v.1.15,2013-04-23 13:54:00,
2013-04-23 07:59:00,48.2,28.4,29.76,NNW,338,1.0,1.0,46,0.00,,,0.00,Wunderground v.1.15,2013-04-23 13:59:00,
2013-04-23 08:05:00,48.7,28.3,29.76,NNW,338,1.0,3.0,45,0.00,,,0.00,Wunderground v.1.15,2013-04-23 14:05:00,
2013-04-23 08:10:00,49.0,28.0,29.76,North,9,2.0,2.0,44,0.00,,,0.00,Wunderground v.1.15,2013-04-23 14:10:00,
2013-04-23 08:15:00,49.3,28.3,29.76,North,9,2.0,2.0,44,0.00,,,0.00,Wunderground v.1.15,2013-04-23 14:15:00,
2013-04-23 08:20:00,49.6,28.6,29.76,North,9,1.0,2.0,44,0.00,,,0.00,Wunderground v.1.15,2013-04-23 14:20:00,
2013-04-23 08:25:00,49.7,28.1,29.76,North,10,1.0,3.0,43,0.00,,,0.00,Wunderground v.1.15,2013-04-23 14:25:00,
2013-04-23 08:30:00,49.9,28.3,29.76,North,5,2.0,5.0,43,0.00,,,0.00,Wunderground v.1.15,2013-04-23 14:30:00,
2013-04-23 08:35:00,50.3,28.1,29.76,North,5,2.0,5.0,42,0.00,,,0.00,Wunderground v.1.15,2013-04-23 14:35:00,
2013-04-23 08:44:00,51.5,27.9,29.76,North,5,1.0,4.0,40,0.00,,,0.00,Wunderground v.1.15,2013-04-23 14:44:00,
2013-04-23 08:50:00,51.8,28.2,29.76,North,5,1.0,3.0,40,0.00,,,0.00,Wunderground v.1.15,2013-04-23 14:50:00,
2013-04-23 08:55:00,52.4,28.1,29.76,North,5,1.0,3.0,39,0.00,,,0.00,Wunderground v.1.15,2013-04-23 14:55:00,
2013-04-23 09:00:00,52.8,28.5,29.76,North,360,2.0,2.0,39,0.00,,,0.00,Wunderground v.1.15,2013-04-23 15:00:00,
2013-04-23 09:05:00,53.2,28.2,29.76,North,360,2.0,2.0,38,0.00,,,0.00,Wunderground v.1.15,2013-04-23 15:05:00,
2013-04-23 09:15:00,53.3,28.3,29.76,NNE,30,3.0,3.0,38,0.00,,,0.00,Wunderground v.1.15,2013-04-23 15:15:00,
2013-04-23 09:20:00,53.8,28.1,29.76,NNE,19,3.0,5.0,37,0.00,,,0.00,Wunderground v.1.15,2013-04-23 15:20:00,
2013-04-23 09:30:00,54.1,28.4,29.77,North,11,3.0,5.0,37,0.00,,,0.00,Wunderground v.1.15,2013-04-23 15:30:00,
2013-04-23 09:35:00,54.2,27.8,29.77,NNE,32,4.0,5.0,36,0.00,,,0.00,Wunderground v.1.15,2013-04-23 15:35:00,
2013-04-23 09:40:00,54.8,28.3,29.77,NNE,27,3.0,3.0,36,0.00,,,0.00,Wunderground v.1.15,2013-04-23 15:40:00,
2013-04-23 09:45:00,55.3,28.1,29.76,North,351,3.0,3.0,35,0.00,,,0.00,Wunderground v.1.15,2013-04-23 15:45:00,
2013-04-23 09:50:00,56.0,28.0,29.76,North,360,2.0,6.0,34,0.00,,,0.00,Wunderground v.1.15,2013-04-23 15:50:00,
2013-04-23 09:55:00,56.4,28.3,29.76,WNW,300,2.0,6.0,34,0.00,,,0.00,Wunderground v.1.15,2013-04-23 15:55:00,
2013-04-23 10:00:00,56.9,27.3,29.76,NNE,23,3.0,4.0,32,0.00,,,0.00,Wunderground v.1.15,2013-04-23 16:00:00,
2013-04-23 10:05:00,56.5,27.7,29.76,North,5,4.0,6.0,33,0.00,,,0.00,Wunderground v.1.15,2013-04-23 16:05:00,
2013-04-23 10:10:00,56.7,27.1,29.76,North,355,4.0,4.0,32,0.00,,,0.00,Wunderground v.1.15,2013-04-23 16:10:00,
2013-04-23 10:15:00,57.5,27.8,29.77,NNW,330,4.0,4.0,32,0.00,,,0.00,Wunderground v.1.15,2013-04-23 16:15:00,
2013-04-23 10:25:00,57.5,26.3,29.76,WNW,301,5.0,5.0,30,0.00,,,0.00,Wunderground v.1.15,2013-04-23 16:25:00,
2013-04-23 10:35:00,58.4,27.1,29.76,North,5,4.0,6.0,30,0.00,,,0.00,Wunderground v.1.15,2013-04-23 16:35:00,
2013-04-23 10:40:00,58.4,27.1,29.76,North,355,4.0,4.0,30,0.00,,,0.00,Wunderground v.1.15,2013-04-23 16:40:00,
2013-04-23 10:50:00,59.0,26.8,29.76,WNW,301,4.0,4.0,29,0.00,,,0.00,Wunderground v.1.15,2013-04-23 16:50:00,
2013-04-23 10:55:00,59.5,26.3,29.76,NE,34,5.0,5.0,28,0.00,,,0.00,Wunderground v.1.15,2013-04-23 16:55:00,
2013-04-23 10:59:00,59.9,25.8,29.75,NNE,25,4.0,9.0,27,0.00,,,0.00,Wunderground v.1.15,2013-04-23 16:59:00,
2013-04-23 11:04:00,60.2,26.1,29.75,NW,311,5.0,9.0,27,0.00,,,0.00,Wunderground v.1.15,2013-04-23 17:04:00,
2013-04-23 11:09:00,60.9,25.7,29.75,NNW,340,5.0,5.0,26,0.00,,,0.00,Wunderground v.1.15,2013-04-23 17:09:00,
2013-04-23 11:15:00,60.9,25.7,29.76,NE,56,4.0,8.0,26,0.00,,,0.00,Wunderground v.1.15,2013-04-23 17:15:00,
2013-04-23 11:20:00,61.1,25.9,29.75,NNW,348,5.0,5.0,26,0.00,,,0.00,Wunderground v.1.15,2013-04-23 17:20:00,
2013-04-23 11:25:00,61.3,25.1,29.76,North,360,5.0,5.0,25,0.00,,,0.00,Wunderground v.1.15,2013-04-23 17:25:00,
2013-04-23 11:30:00,61.4,25.2,29.75,North,5,5.0,5.0,25,0.00,,,0.00,Wunderground v.1.15,2013-04-23 17:30:00,
2013-04-23 11:35:00,62.0,25.7,29.75,WNW,298,5.0,5.0,25,0.00,,,0.00,Wunderground v.1.15,2013-04-23 17:35:00,
2013-04-23 11:40:00,62.1,25.8,29.75,NNW,343,4.0,4.0,25,0.00,,,0.00,Wunderground v.1.15,2013-04-23 17:40:00,
2013-04-23 11:45:00,62.8,25.4,29.75,North,11,4.0,4.0,24,0.00,,,0.00,Wunderground v.1.15,2013-04-23 17:45:00,
2013-04-23 11:50:00,63.3,25.9,29.75,NNW,338,5.0,6.0,24,0.00,,,0.00,Wunderground v.1.15,2013-04-23 17:50:00,
2013-04-23 11:55:00,63.9,25.3,29.75,NNW,346,4.0,6.0,23,0.00,,,0.00,Wunderground v.1.15,2013-04-23 17:55:00,
2013-04-23 12:00:00,63.6,25.1,29.75,NNE,26,4.0,5.0,23,0.00,,,0.00,Wunderground v.1.15,2013-04-23 18:00:00,
2013-04-23 12:04:00,63.6,25.1,29.75,ENE,59,5.0,7.0,23,0.00,,,0.00,Wunderground v.1.15,2013-04-23 18:04:00,
2013-04-23 12:09:00,63.7,25.2,29.74,NNE,32,5.0,5.0,23,0.00,,,0.00,Wunderground v.1.15,2013-04-23 18:09:00,
2013-04-23 12:15:00,64.7,26.0,29.74,NW,315,5.0,5.0,23,0.00,,,0.00,Wunderground v.1.15,2013-04-23 18:15:00,
2013-04-23 12:20:00,65.2,25.4,29.74,NNE,20,5.0,5.0,22,0.00,,,0.00,Wunderground v.1.15,2013-04-23 18:20:00,
2013-04-23 12:25:00,64.8,25.0,29.74,WNW,295,4.0,6.0,22,0.00,,,0.00,Wunderground v.1.15,2013-04-23 18:25:00,
2013-04-23 12:30:00,64.8,25.0,29.74,North,355,5.0,11.0,22,0.00,,,0.00,Wunderground v.1.15,2013-04-23 18:30:00,
2013-04-23 12:35:00,64.7,24.9,29.74,NNE,31,5.0,11.0,22,0.00,,,0.00,Wunderground v.1.15,2013-04-23 18:35:00,
2013-04-23 12:40:00,65.7,24.7,29.73,NNE,26,3.0,3.0,21,0.00,,,0.00,Wunderground v.1.15,2013-04-23 18:40:00,
2013-04-23 12:49:00,66.1,25.0,29.73,NNE,17,3.0,9.0,21,0.00,,,0.00,Wunderground v.1.15,2013-04-23 18:49:00,
2013-04-23 12:55:00,66.6,24.2,29.72,ENE,65,2.0,9.0,20,0.00,,,0.00,Wunderground v.1.15,2013-04-23 18:55:00,
2013-04-23 13:00:00,67.3,24.8,29.72,NE,47,3.0,4.0,20,0.00,,,0.00,Wunderground v.1.15,2013-04-23 19:00:00,
2013-04-23 13:05:00,67.1,24.6,29.72,NW,313,3.0,4.0,20,0.00,,,0.00,Wunderground v.1.15,2013-04-23 19:05:00,
2013-04-23 13:10:00,67.3,24.8,29.72,SE,125,2.0,2.0,20,0.00,,,0.00,Wunderground v.1.15,2013-04-23 19:10:00,
2013-04-23 13:20:00,69.4,24.0,29.71,WNW,297,2.0,2.0,18,0.00,,,0.00,Wunderground v.1.15,2013-04-23 19:20:00,
2013-04-23 13:25:00,69.1,23.8,29.71,NNE,22,2.0,2.0,18,0.00,,,0.00,Wunderground v.1.15,2013-04-23 19:25:00,
2013-04-23 13:30:00,69.4,25.3,29.70,NW,320,2.0,12.0,19,0.00,,,0.00,Wunderground v.1.15,2013-04-23 19:30:00,
2013-04-23 13:35:00,69.0,23.7,29.70,NNE,15,3.0,12.0,18,0.00,,,0.00,Wunderground v.1.15,2013-04-23 19:35:00,
2013-04-23 13:40:00,69.1,23.8,29.70,NNE,26,3.0,5.0,18,0.00,,,0.00,Wunderground v.1.15,2013-04-23 19:40:00,
2013-04-23 13:45:00,68.9,24.9,29.70,NNW,348,3.0,5.0,19,0.00,,,0.00,Wunderground v.1.15,2013-04-23 19:45:00,
2013-04-23 13:49:00,69.4,24.0,29.69,East,84,3.0,3.0,18,0.00,,,0.00,Wunderground v.1.15,2013-04-23 19:49:00,
2013-04-23 13:55:00,69.2,23.9,29.69,ESE,104,2.0,3.0,18,0.00,,,0.00,Wunderground v.1.15,2013-04-23 19:55:00,
2013-04-23 14:00:00,68.8,23.5,29.69,NNW,336,3.0,3.0,18,0.00,,,0.00,Wunderground v.1.15,2013-04-23 20:00:00,
2013-04-23 14:05:00,68.4,23.2,29.69,NNW,332,2.0,3.0,18,0.00,,,0.00,Wunderground v.1.15,2013-04-23 20:05:00,
2013-04-23 14:10:00,67.6,22.5,29.69,SSE,160,2.0,2.0,18,0.00,,,0.00,Wunderground v.1.15,2013-04-23 20:10:00,
2013-04-23 14:20:00,67.1,23.4,29.70,NW,313,1.0,3.0,19,0.00,,,0.00,Wunderground v.1.15,2013-04-23 20:20:00,
2013-04-23 14:25:00,66.9,23.3,29.70,NNW,344,3.0,7.0,19,0.00,,,0.00,Wunderground v.1.15,2013-04-23 20:25:00,
2013-04-23 14:30:00,66.4,22.8,29.70,NNE,24,4.0,4.0,19,0.00,,,0.00,Wunderground v.1.15,2013-04-23 20:30:00,
2013-04-23 14:34:00,66.5,21.6,29.71,NNW,348,4.0,6.0,18,0.00,,,0.00,Wunderground v.1.15,2013-04-23 20:34:00,
2013-04-23 14:39:00,66.0,21.2,29.71,WSW,242,5.0,9.0,18,0.00,,,0.00,Wunderground v.1.15,2013-04-23 20:39:00,
2013-04-23 14:44:00,65.3,20.7,29.71,North,360,7.0,9.0,18,0.00,,,0.00,Wunderground v.1.15,2013-04-23 20:44:00,
2013-04-23 14:50:00,65.3,20.7,29.71,North,349,6.0,6.0,18,0.00,,,0.00,Wunderground v.1.15,2013-04-23 20:50:00,
2013-04-23 14:55:00,65.3,20.7,29.71,NNW,346,5.0,6.0,18,0.00,,,0.00,Wunderground v.1.15,2013-04-23 20:55:00,
2013-04-23 15:00:00,65.1,19.2,29.72,NNE,13,5.0,6.0,17,0.00,,,0.00,Wunderground v.1.15,2013-04-23 21:00:00,
2013-04-23 15:05:00,64.4,19.9,29.72,NNW,342,6.0,9.0,18,0.00,,,0.00,Wunderground v.1.15,2013-04-23 21:05:00,
2013-04-23 15:10:00,63.5,20.5,29.73,NNW,339,7.0,9.0,19,0.00,,,0.00,Wunderground v.1.15,2013-04-23 21:10:00,
2013-04-23 15:15:00,62.9,21.2,29.74,WNW,296,8.0,13.0,20,0.00,,,0.00,Wunderground v.1.15,2013-04-23 21:15:00,
2013-04-23 15:20:00,62.0,21.6,29.75,North,355,9.0,9.0,21,0.00,,,0.00,Wunderground v.1.15,2013-04-23 21:20:00,
2013-04-23 15:24:00,61.7,22.4,29.75,NNE,27,9.0,10.0,22,0.00,,,0.00,Wunderground v.1.15,2013-04-23 21:24:00,
2013-04-23 15:30:00,61.4,22.2,29.75,North,10,8.0,8.0,22,0.00,,,0.00,Wunderground v.1.15,2013-04-23 21:30:00,
2013-04-23 15:35:00,61.2,22.0,29.75,NNE,24,8.0,8.0,22,0.00,,,0.00,Wunderground v.1.15,2013-04-23 21:35:00,
2013-04-23 15:40:00,61.2,22.0,29.76,North,5,8.0,8.0,22,0.00,,,0.00,Wunderground v.1.15,2013-04-23 21:40:00,
2013-04-23 15:45:00,61.2,22.0,29.76,NNW,346,8.0,8.0,22,0.00,,,0.00,Wunderground v.1.15,2013-04-23 21:45:00,
2013-04-23 15:50:00,61.6,22.3,29.76,NNE,19,6.0,6.0,22,0.00,,,0.00,Wunderground v.1.15,2013-04-23 21:50:00,
2013-04-23 15:55:00,62.4,23.0,29.75,North,5,4.0,6.0,22,0.00,,,0.00,Wunderground v.1.15,2013-04-23 21:55:00,
2013-04-23 16:00:00,63.1,23.6,29.75,NE,36,3.0,3.0,22,0.00,,,0.00,Wunderground v.1.15,2013-04-23 22:00:00,
2013-04-23 16:05:00,63.8,23.1,29.75,North,355,3.0,3.0,21,0.00,,,0.00,Wunderground v.1.15,2013-04-23 22:05:00,
2013-04-23 16:10:00,64.1,23.3,29.75,NNW,344,3.0,3.0,21,0.00,,,0.00,Wunderground v.1.15,2013-04-23 22:10:00,
2013-04-23 16:15:00,64.1,23.3,29.76,NNW,328,2.0,3.0,21,0.00,,,0.00,Wunderground v.1.15,2013-04-23 22:15:00,
2013-04-23 16:19:00,63.9,24.3,29.76,NW,320,2.0,2.0,22,0.00,,,0.00,Wunderground v.1.15,2013-04-23 22:19:00,
2013-04-23 16:24:00,63.8,24.2,29.75,NW,321,2.0,2.0,22,0.00,,,0.00,Wunderground v.1.15,2013-04-23 22:24:00,
2013-04-23 16:30:00,63.7,23.0,29.75,North,5,2.0,17.0,21,0.00,,,0.00,Wunderground v.1.15,2013-04-23 22:30:00,
2013-04-23 16:35:00,63.8,23.1,29.75,NW,325,2.0,17.0,21,0.00,,,0.00,Wunderground v.1.15,2013-04-23 22:35:00,
2013-04-23 16:40:00,64.4,22.4,29.75,NW,309,4.0,5.0,20,0.00,,,0.00,Wunderground v.1.15,2013-04-23 22:40:00,
2013-04-23 16:45:00,65.1,20.5,29.74,WSW,244,6.0,7.0,18,0.00,,,0.00,Wunderground v.1.15,2013-04-23 22:45:00,
2013-04-23 16:50:00,65.5,20.8,29.74,WNW,296,8.0,8.0,18,0.00,,,0.00,Wunderground v.1.15,2013-04-23 22:50:00,
2013-04-23 16:55:00,65.5,19.5,29.75,WNW,291,8.0,9.0,17,0.00,,,0.00,Wunderground v.1.15,2013-04-23 22:55:00,
2013-04-23 16:59:00,65.3,17.9,29.75,NW,311,6.0,6.0,16,0.00,,,0.00,Wunderground v.1.15,2013-04-23 22:59:00,
2013-04-23 17:04:00,65.4,18.0,29.75,NW,304,6.0,10.0,16,0.00,,,0.00,Wunderground v.1.15,2013-04-23 23:04:00,
2013-04-23 17:10:00,66.0,18.5,29.76,NW,321,6.0,7.0,16,0.00,,,0.00,Wunderground v.1.15,2013-04-23 23:10:00,
2013-04-23 17:15:00,66.3,17.2,29.76,West,277,6.0,7.0,15,0.00,,,0.00,Wunderground v.1.15,2013-04-23 23:15:00,
2013-04-23 17:20:00,65.8,16.8,29.76,NW,324,7.0,7.0,15,0.00,,,0.00,Wunderground v.1.15,2013-04-23 23:20:00,
2013-04-23 17:25:00,65.0,14.6,29.77,NW,309,7.0,18.0,14,0.00,,,0.00,Wunderground v.1.15,2013-04-23 23:25:00,
2013-04-23 17:30:00,65.4,13.2,29.78,NW,319,7.0,12.0,13,0.00,,,0.00,Wunderground v.1.15,2013-04-23 23:30:00,
2013-04-23 17:35:00,65.8,13.5,29.78,ENE,63,7.0,12.0,13,0.00,,,0.00,Wunderground v.1.15,2013-04-23 23:35:00,
2013-04-23 17:45:00,65.6,13.4,29.79,WNW,294,8.0,8.0,13,0.00,,,0.00,Wunderground v.1.15,2013-04-23 23:45:00,
2013-04-23 17:50:00,65.4,11.4,29.79,NW,317,7.0,7.0,12,0.00,,,0.00,Wunderground v.1.15,2013-04-23 23:50:00,
2013-04-23 17:55:00,65.2,11.2,29.79,NNW,339,7.0,7.0,12,0.00,,,0.00,Wunderground v.1.15,2013-04-23 23:55:00,
2013-04-23 17:59:00,65.5,9.5,29.80,NNW,333,5.0,6.0,11,0.00,,,0.00,Wunderground v.1.15,2013-04-23 23:59:00,
2013-04-23 18:05:00,65.1,7.1,29.80,NW,305,6.0,6.0,10,0.00,,,0.00,Wunderground v.1.15,2013-04-24 00:05:00,
2013-04-23 18:10:00,65.1,4.8,29.80,NNW,337,6.0,6.0,9,0.00,,,0.00,Wunderground v.1.15,2013-04-24 00:10:00,
2013-04-23 18:15:00,65.1,4.8,29.80,North,351,5.0,6.0,9,0.00,,,0.00,Wunderground v.1.15,2013-04-24 00:15:00,
2013-04-23 18:20:00,65.0,2.1,29.81,NNW,336,5.0,7.0,8,0.00,,,0.00,Wunderground v.1.15,2013-04-24 00:20:00,
2013-04-23 18:25:00,64.9,-0.8,29.81,NNW,345,6.0,7.0,7,0.00,,,0.00,Wunderground v.1.15,2013-04-24 00:25:00,
2013-04-23 18:30:00,64.9,2.1,29.82,NW,315,6.0,6.0,8,0.00,,,0.00,Wunderground v.1.15,2013-04-24 00:30:00,
2013-04-23 18:35:00,64.7,4.5,29.82,NNW,340,4.0,6.0,9,0.00,,,0.00,Wunderground v.1.15,2013-04-24 00:35:00,
2013-04-23 18:40:00,64.1,1.5,29.83,North,5,5.0,5.0,8,0.00,,,0.00,Wunderground v.1.15,2013-04-24 00:40:00,
2013-04-23 18:44:00,63.3,-2.0,29.83,North,360,6.0,9.0,7,0.00,,,0.00,Wunderground v.1.15,2013-04-24 00:44:00,
2013-04-23 18:49:00,62.6,-2.5,29.83,North,349,5.0,8.0,7,0.00,,,0.00,Wunderground v.1.15,2013-04-24 00:49:00,
2013-04-23 18:55:00,62.2,-2.8,29.84,North,355,6.0,8.0,7,0.00,,,0.00,Wunderground v.1.15,2013-04-24 00:55:00,
2013-04-23 19:00:00,61.8,-6.3,29.84,North,5,6.0,7.0,6,0.00,,,0.00,Wunderground v.1.15,2013-04-24 01:00:00,
2013-04-23 19:10:00,60.9,-7.0,29.85,North,355,6.0,6.0,6,0.00,,,0.00,Wunderground v.1.15,2013-04-24 01:10:00,
2013-04-23 19:15:00,60.6,-7.2,29.85,NNW,336,5.0,9.0,6,0.00,,,0.00,Wunderground v.1.15,2013-04-24 01:15:00,
2013-04-23 19:20:00,60.3,-7.4,29.86,NNW,331,6.0,9.0,6,0.00,,,0.00,Wunderground v.1.15,2013-04-24 01:20:00,
2013-04-23 19:25:00,60.0,-7.6,29.86,NW,321,6.0,9.0,6,0.00,,,0.00,Wunderground v.1.15,2013-04-24 01:25:00,
2013-04-23 19:30:00,59.5,-8.0,29.87,North,355,6.0,6.0,6,0.00,,,0.00,Wunderground v.1.15,2013-04-24 01:30:00,
2013-04-23 19:34:00,59.0,-8.3,29.87,NNW,335,5.0,6.0,6,0.00,,,0.00,Wunderground v.1.15,2013-04-24 01:34:00,
2013-04-23 19:40:00,59.0,-8.3,29.88,WNW,295,5.0,5.0,6,0.00,,,0.00,Wunderground v.1.15,2013-04-24 01:40:00,
2013-04-23 19:45:00,58.7,-8.6,29.88,NNW,328,6.0,6.0,6,0.00,,,0.00,Wunderground v.1.15,2013-04-24 01:45:00,
2013-04-23 19:50:00,58.3,-8.9,29.89,North,360,5.0,5.0,6,0.00,,,0.00,Wunderground v.1.15,2013-04-24 01:50:00,
2013-04-23 20:00:00,57.6,-9.4,29.90,NNE,24,5.0,5.0,6,0.00,,,0.00,Wunderground v.1.15,2013-04-24 02:00:00,
2013-04-23 20:05:00,57.2,-9.7,29.90,NNE,22,5.0,5.0,6,0.00,,,0.00,Wunderground v.1.15,2013-04-24 02:05:00,
2013-04-23 20:10:00,56.9,-9.9,29.91,North,9,4.0,4.0,6,0.00,,,0.00,Wunderground v.1.15,2013-04-24 02:10:00,
2013-04-23 20:15:00,56.6,-10.1,29.91,North,360,4.0,4.0,6,0.00,,,0.00,Wunderground v.1.15,2013-04-24 02:15:00,
2013-04-23 20:25:00,56.0,-10.5,29.91,NNE,16,4.0,5.0,6,0.00,,,0.00,Wunderground v.1.15,2013-04-24 02:25:00,
2013-04-23 20:39:00,55.5,-10.9,29.93,NE,40,5.0,5.0,6,0.00,,,0.00,Wunderground v.1.15,2013-04-24 02:39:00,
2013-04-23 20:45:00,55.4,-11.0,29.94,NNE,22,5.0,5.0,6,0.00,,,0.00,Wunderground v.1.15,2013-04-24 02:45:00,
2013-04-23 20:50:00,55.3,-11.1,29.94,North,11,6.0,6.0,6,0.00,,,0.00,Wunderground v.1.15,2013-04-24 02:50:00,
2013-04-23 20:55:00,55.0,-8.1,29.94,North,355,5.0,6.0,7,0.00,,,0.00,Wunderground v.1.15,2013-04-24 02:55:00,
2013-04-23 21:05:00,54.3,-8.7,29.95,NNE,12,4.0,6.0,7,0.00,,,0.00,Wunderground v.1.15,2013-04-24 03:05:00,
2013-04-23 21:10:00,54.1,-8.8,29.95,North,360,3.0,3.0,7,0.00,,,0.00,Wunderground v.1.15,2013-04-24 03:10:00,
2013-04-23 21:15:00,54.0,-8.9,29.96,NNE,22,3.0,3.0,7,0.00,,,0.00,Wunderground v.1.15,2013-04-24 03:15:00,
2013-04-23 21:19:00,53.9,-6.2,29.96,NNE,22,3.0,3.0,8,0.00,,,0.00,Wunderground v.1.15,2013-04-24 03:19:00,
2013-04-23 21:34:00,53.4,-6.6,29.97,NNE,21,3.0,14.0,8,0.00,,,0.00,Wunderground v.1.15,2013-04-24 03:34:00,
2013-04-23 21:50:00,52.9,-4.5,29.98,East,101,1.0,1.0,9,0.00,,,0.00,Wunderground v.1.15,2013-04-24 03:50:00,
2013-04-23 21:55:00,52.6,8.9,29.98,SE,125,1.0,1.0,17,0.00,,,0.00,Wunderground v.1.15,2013-04-24 03:55:00,
2013-04-23 22:00:00,51.5,11.7,29.98,SE,125,1.0,1.0,20,0.00,,,0.00,Wunderground v.1.15,2013-04-24 04:00:00,
2013-04-23 22:05:00,50.5,10.9,29.98,SE,126,1.0,1.0,20,0.00,,,0.00,Wunderground v.1.15,2013-04-24 04:05:00,
2013-04-23 22:10:00,50.0,9.3,29.98,SE,126,1.0,1.0,19,0.00,,,0.00,Wunderground v.1.15,2013-04-24 04:10:00,
2013-04-23 22:15:00,49.8,10.3,29.99,SE,126,1.0,1.0,20,0.00,,,0.00,Wunderground v.1.15,2013-04-24 04:15:00,
2013-04-23 22:19:00,49.6,10.1,29.98,SE,126,1.0,1.0,20,0.00,,,0.00,Wunderground v.1.15,2013-04-24 04:19:00,
2013-04-23 22:24:00,49.2,11.9,29.99,SE,142,1.0,1.0,22,0.00,,,0.00,Wunderground v.1.15,2013-04-24 04:24:00,
2013-04-23 22:30:00,48.8,13.5,29.98,SE,138,2.0,2.0,24,0.00,,,0.00,Wunderground v.1.15,2013-04-24 04:30:00,
2013-04-23 22:35:00,48.3,13.1,29.99,SE,137,2.0,2.0,24,0.00,,,0.00,Wunderground v.1.15,2013-04-24 04:35:00,
2013-04-23 22:40:00,47.9,13.7,29.99,South,182,1.0,4.0,25,0.00,,,0.00,Wunderground v.1.15,2013-04-24 04:40:00,
2013-04-23 22:50:00,47.0,14.7,29.99,South,172,2.0,3.0,27,0.00,,,0.00,Wunderground v.1.15,2013-04-24 04:50:00,
2013-04-23 22:55:00,46.6,14.4,29.99,ESE,113,2.0,3.0,27,0.00,,,0.00,Wunderground v.1.15,2013-04-24 04:55:00,
2013-04-23 22:59:00,46.4,15.0,29.99,SSE,161,3.0,3.0,28,0.00,,,0.00,Wunderground v.1.15,2013-04-24 04:59:00,
2013-04-23 23:05:00,45.8,15.3,29.99,East,91,2.0,3.0,29,0.00,,,0.00,Wunderground v.1.15,2013-04-24 05:05:00,
2013-04-23 23:10:00,45.2,15.6,29.99,ESE,107,2.0,2.0,30,0.00,,,0.00,Wunderground v.1.15,2013-04-24 05:10:00,
2013-04-23 23:15:00,45.0,14.6,29.99,East,83,2.0,2.0,29,0.00,,,0.00,Wunderground v.1.15,2013-04-24 05:15:00,
2013-04-23 23:20:00,44.8,14.4,30.00,ESE,120,2.0,2.0,29,0.00,,,0.00,Wunderground v.1.15,2013-04-24 05:20:00,
2013-04-23 23:25:00,44.7,14.3,30.00,SE,125,2.0,2.0,29,0.00,,,0.00,Wunderground v.1.15,2013-04-24 05:25:00,
2013-04-23 23:30:00,44.7,14.3,30.01,SE,140,2.0,2.0,29,0.00,,,0.00,Wunderground v.1.15,2013-04-24 05:30:00,
2013-04-23 23:35:00,44.6,14.3,30.01,SE,146,2.0,6.0,29,0.00,,,0.00,Wunderground v.1.15,2013-04-24 05:35:00,
2013-04-23 23:39:00,44.6,14.3,30.01,ESE,120,2.0,2.0,29,0.00,,,0.00,Wunderground v.1.15,2013-04-24 05:39:00,
2013-04-23 23:44:00,44.5,13.4,30.01,ESE,120,2.0,3.0,28,0.00,,,0.00,Wunderground v.1.15,2013-04-24 05:44:00,
2013-04-23 23:49:00,44.4,14.1,30.02,ESE,119,1.0,1.0,29,0.00,,,0.00,Wunderground v.1.15,2013-04-24 05:49:00,
2013-04-23 23:55:00,44.2,13.9,30.03,NNE,22,2.0,2.0,29,0.00,,,0.00,Wunderground v.1.15,2013-04-24 05:55:00,